AEHF-4 (USA 288)

Last updated on Mon Oct 14 2024 00:02:41 GMT+0000 (Coordinated Universal Time)

1 43651U 18079A 24287.46467580 -.00000277 00000+0 00000+0 0 9992 2 43651 1.6305 334.7883 0052385 8.5704 138.8271 1.00266433 22165
UTC large
Height (km)
Speed (km/s)
/
Latitude / Longitude
Inclination (degrees)
Orbital Period (minutes)
Azimuth
Elevation
Range (km)
Doppler Factor

Next 0 passes for location: London (51.5072 / 0.1276)

Sorry there are no passes over London.